TimeCST,TemperatureF,Dew PointF,Humidity,Sea Level PressureIn,VisibilityMPH,Wind Direction,Wind SpeedMPH,Gust SpeedMPH,PrecipitationIn,Events,Conditions,WindDirDegrees,DateUTC
12:13 AM,42.8,37.4,81,30.00,9.0,ENE,12.7,-,0.01,Rain,Light Rain,70,2012-12-09 06:13:00
12:52 AM,43.0,37.9,82,29.99,8.0,East,11.5,-,0.01,,Overcast,80,2012-12-09 06:52:00
1:23 AM,42.8,37.4,81,29.96,6.0,East,12.7,-,0.01,,Haze,80,2012-12-09 07:23:00
1:50 AM,42.8,37.4,81,29.95,7.0,East,11.5,-,0.01,,Overcast,80,2012-12-09 07:50:00
1:52 AM,43.0,37.9,82,29.96,6.0,East,13.8,-,0.01,,Haze,80,2012-12-09 07:52:00
2:01 AM,42.8,37.4,81,29.95,6.0,East,12.7,-,0.00,Rain,Light Rain,80,2012-12-09 08:01:00
2:52 AM,43.0,39.0,86,29.94,5.0,East,10.4,-,0.02,,Overcast,80,2012-12-09 08:52:00
3:52 AM,43.0,39.0,86,29.93,6.0,East,9.2,-,0.01,,Overcast,80,2012-12-09 09:52:00
4:52 AM,43.0,39.0,86,29.89,4.0,East,11.5,-,0.07,Rain,Light Rain,80,2012-12-09 10:52:00
5:52 AM,43.0,39.0,86,29.87,6.0,East,9.2,-,0.00,,Overcast,90,2012-12-09 11:52:00
6:52 AM,44.1,39.9,85,29.87,7.0,East,9.2,-,N/A,,Overcast,100,2012-12-09 12:52:00
7:52 AM,45.0,41.0,86,29.86,3.0,ESE,8.1,-,N/A,,Overcast,120,2012-12-09 13:52:00
8:34 AM,44.6,42.8,93,29.84,2.5,ESE,8.1,-,N/A,,Overcast,120,2012-12-09 14:34:00
8:52 AM,46.0,42.1,86,29.84,2.5,ESE,9.2,-,N/A,,Overcast,120,2012-12-09 14:52:00
9:52 AM,46.9,43.0,86,29.86,2.5,SSE,5.8,-,N/A,,Overcast,150,2012-12-09 15:52:00
10:01 AM,46.4,42.8,87,29.85,1.2,SSE,6.9,-,N/A,,Overcast,150,2012-12-09 16:01:00
10:52 AM,48.9,45.0,86,29.82,1.2,SSE,6.9,-,N/A,,Overcast,160,2012-12-09 16:52:00
10:59 AM,48.2,44.6,87,29.81,2.5,South,8.1,-,N/A,,Overcast,180,2012-12-09 16:59:00
11:52 AM,50.0,46.0,86,29.81,2.5,SW,6.9,-,N/A,,Overcast,220,2012-12-09 17:52:00
12:35 PM,50.0,46.4,87,29.80,5.0,WSW,15.0,-,N/A,,Overcast,250,2012-12-09 18:35:00
12:52 PM,50.0,45.0,83,29.80,7.0,West,13.8,-,N/A,,Overcast,260,2012-12-09 18:52:00
1:52 PM,48.9,44.1,83,29.79,9.0,West,10.4,-,0.01,Rain,Light Rain,270,2012-12-09 19:52:00
2:52 PM,48.9,44.1,83,29.79,10.0,West,10.4,-,0.01,,Overcast,270,2012-12-09 20:52:00
3:52 PM,48.0,43.0,83,29.79,10.0,WNW,8.1,-,N/A,,Overcast,300,2012-12-09 21:52:00
4:52 PM,46.9,43.0,86,29.80,9.0,WNW,11.5,-,N/A,,Overcast,300,2012-12-09 22:52:00
5:52 PM,46.0,41.0,83,29.81,10.0,NW,11.5,19.6,N/A,,Overcast,320,2012-12-09 23:52:00
6:52 PM,45.0,39.0,80,29.83,10.0,WNW,11.5,-,N/A,,Overcast,300,2012-12-10 00:52:00
6:59 PM,44.6,39.2,81,29.83,10.0,WNW,12.7,19.6,N/A,,Overcast,300,2012-12-10 00:59:00
7:37 PM,44.6,37.4,76,29.84,10.0,WNW,13.8,-,N/A,,Overcast,300,2012-12-10 01:37:00
7:52 PM,44.1,37.0,76,29.85,10.0,WNW,10.4,-,N/A,,Overcast,300,2012-12-10 01:52:00
8:52 PM,44.1,37.0,76,29.83,10.0,WNW,9.2,-,N/A,,Overcast,290,2012-12-10 02:52:00
9:52 PM,43.0,35.1,74,29.84,10.0,WNW,8.1,-,N/A,,Scattered Clouds,290,2012-12-10 03:52:00
10:52 PM,39.9,33.1,77,29.85,10.0,WNW,18.4,25.3,N/A,,Overcast,290,2012-12-10 04:52:00
11:27 PM,37.4,30.2,75,29.85,10.0,West,20.7,28.8,N/A,,Overcast,280,2012-12-10 05:27:00
11:49 PM,35.6,28.4,75,29.85,9.0,WNW,18.4,24.2,0.00,Snow,Light Snow,290,2012-12-10 05:49:00
11:52 PM,35.1,28.0,76,29.86,9.0,West,18.4,24.2,0.00,Snow,Light Snow,280,2012-12-10 05:52:00